When you browse on this site, cookies collect data to enhance your experience and personalize the content and advertising you see.
Visit our Privacy Policy to learn more. By continuing to use the site, you agree to this use of cookies and data.
  • In Lithuania
  • List of Countries
  • For 7 days
  • Water Temperature
  • Satellite Maps
  • Weather Map
  • Weather Widgets
  • user-avatar
    Login

    Hourly Weather Konakry

    Today, 20 January, Sunday

    Time Temperature Precipitation Wind Pressure Humidity
    00:00 +27°C° 0 mm 1 mps 757 mmHg 82%
    01:00 +26°C° 0 mm 1 mps 757 mmHg 84%
    02:00 +26°C° 0 mm 1 mps 757 mmHg 85%
    03:00 +26°C° 0 mm 1 mps 757 mmHg 86%
    04:00 +25°C° 0 mm 1 mps 757 mmHg 87%
    05:00 +25°C° 0 mm 1 mps 757 mmHg 88%
    06:00 +26°C° 0 mm 1 mps 757 mmHg 82%
    07:00 +27°C° 0 mm 1 mps 757 mmHg 76%
    08:00 +28°C° 0 mm 1 mps 757 mmHg 70%
    09:00 +30°C° 0 mm 1 mps 757 mmHg 58%
    10:00 +33°C° 0 mm 1 mps 757 mmHg 46%
    11:00 +35°C° 0 mm 1 mps 757 mmHg 34%
    12:00 +36°C° 0 mm 2 mps 757 mmHg 34%
    13:00 +36°C° 0 mm 3 mps 756 mmHg 34%
    14:00 +37°C° 0 mm 4 mps 755 mmHg 34%
    15:00 +35°C° 0 mm 4 mps 755 mmHg 41%
    16:00 +34°C° 0 mm 4 mps 755 mmHg 47%
    17:00 +33°C° 0 mm 4 mps 755 mmHg 54%
    18:00 +30°C° 0 mm 3 mps 756 mmHg 60%
    19:00 +29°C° 0 mm 3 mps 756 mmHg 66%
    20:00 +28°C° 0 mm 2 mps 757 mmHg 72%
    21:00 +28°C° 0 mm 2 mps 757 mmHg 74%
    22:00 +27°C° 0 mm 2 mps 757 mmHg 76%
    23:00 +27°C° 0 mm 2 mps 757 mmHg 79%

    Tomorrow, 21 January, Monday

    Time Temperature Precipitation Wind Pressure Humidity
    00:00 +27°C° 0 mm 2 mps 757 mmHg 80%
    01:00 +26°C° 0 mm 3 mps 757 mmHg 81%
    02:00 +26°C° 0 mm 3 mps 757 mmHg 82%
    03:00 +25°C° 0 mm 3 mps 757 mmHg 83%
    04:00 +25°C° 0 mm 3 mps 757 mmHg 84%
    05:00 +25°C° 0 mm 3 mps 757 mmHg 85%
    06:00 +25°C° 0 mm 2 mps 757 mmHg 78%
    07:00 +26°C° 0 mm 2 mps 757 mmHg 72%
    08:00 +27°C° 0 mm 2 mps 758 mmHg 66%
    09:00 +30°C° 0 mm 1 mps 757 mmHg 54%
    10:00 +32°C° 0 mm 1 mps 757 mmHg 43%
    11:00 +35°C° 0 mm 1 mps 757 mmHg 31%
    12:00 +36°C° 0 mm 2 mps 756 mmHg 33%
    13:00 +36°C° 0 mm 3 mps 755 mmHg 35%
    14:00 +36°C° 0 mm 5 mps 755 mmHg 37%
    15:00 +34°C° 0 mm 5 mps 755 mmHg 42%
    16:00 +33°C° 0 mm 4 mps 754 mmHg 47%
    17:00 +32°C° 0 mm 4 mps 754 mmHg 53%
    18:00 +30°C° 0 mm 4 mps 755 mmHg 58%
    19:00 +29°C° 0 mm 3 mps 755 mmHg 63%
    20:00 +28°C° 0 mm 2 mps 756 mmHg 68%
    21:00 +27°C° 0 mm 2 mps 756 mmHg 69%
    22:00 +27°C° 0 mm 2 mps 757 mmHg 70%
    23:00 +27°C° 0 mm 2 mps 757 mmHg 71%

    Day after tomorrow, 22 January, Tuesday

    Time Temperature Precipitation Wind Pressure Humidity
    00:00 +26°C° 0 mm 3 mps 756 mmHg 72%
    01:00 +26°C° 0 mm 3 mps 756 mmHg 74%
    02:00 +25°C° 0 mm 3 mps 756 mmHg 75%
    03:00 +25°C° 0 mm 3 mps 756 mmHg 74%
    04:00 +24°C° 0 mm 3 mps 756 mmHg 73%
    05:00 +24°C° 0 mm 3 mps 756 mmHg 72%
    06:00 +25°C° 0 mm 3 mps 756 mmHg 65%
    07:00 +26°C° 0 mm 2 mps 756 mmHg 58%
    08:00 +27°C° 0 mm 2 mps 757 mmHg 50%
    09:00 +30°C° 0 mm 2 mps 757 mmHg 42%
    10:00 +34°C° 0 mm 2 mps 756 mmHg 34%
    11:00 +37°C° 0 mm 2 mps 756 mmHg 25%
    12:00 +37°C° 0 mm 2 mps 755 mmHg 26%
    13:00 +37°C° 0 mm 3 mps 754 mmHg 26%
    14:00 +38°C° 0 mm 4 mps 754 mmHg 27%
    15:00 +36°C° 0 mm 4 mps 753 mmHg 33%
    16:00 +35°C° 0 mm 4 mps 753 mmHg 39%
    17:00 +33°C° 0 mm 4 mps 753 mmHg 44%
    18:00 +31°C° 0 mm 3 mps 754 mmHg 49%
    19:00 +29°C° 0 mm 3 mps 754 mmHg 54%
    20:00 +28°C° 0 mm 2 mps 755 mmHg 58%
    21:00 +28°C° 0 mm 2 mps 755 mmHg 57%
    22:00 +27°C° 0 mm 2 mps 756 mmHg 56%
    23:00 +27°C° 0 mm 2 mps 756 mmHg 54%

    23 January, Wednesday

    Time Temperature Precipitation Wind Pressure Humidity
    00:00 +26°C° 0 mm 2 mps 755 mmHg 53%
    01:00 +26°C° 0 mm 2 mps 755 mmHg 53%
    02:00 +25°C° 0 mm 2 mps 755 mmHg 52%
    03:00 +25°C° 0 mm 2 mps 755 mmHg 51%
    04:00 +24°C° 0 mm 2 mps 755 mmHg 51%
    05:00 +24°C° 0 mm 2 mps 755 mmHg 51%
    06:00 +25°C° 0 mm 2 mps 755 mmHg 46%
    07:00 +27°C° 0 mm 2 mps 755 mmHg 42%
    08:00 +28°C° 0 mm 2 mps 756 mmHg 38%
    09:00 +30°C° 0 mm 2 mps 756 mmHg 33%
    10:00 +34°C° 0 mm 2 mps 756 mmHg 29%
    11:00 +37°C° 0 mm 2 mps 756 mmHg 24%
    12:00 +37°C° 0 mm 3 mps 755 mmHg 26%
    13:00 +37°C° 0 mm 4 mps 754 mmHg 27%
    14:00 +37°C° 0 mm 4 mps 753 mmHg 29%
    15:00 +36°C° 0 mm 4 mps 753 mmHg 36%
    16:00 +34°C° 0 mm 4 mps 753 mmHg 43%
    17:00 +33°C° 0 mm 3 mps 753 mmHg 50%
    18:00 +30°C° 0 mm 3 mps 754 mmHg 56%
    19:00 +29°C° 0 mm 2 mps 754 mmHg 62%
    20:00 +28°C° 0 mm 1 mps 755 mmHg 68%
    21:00 +27°C° 0 mm 1 mps 755 mmHg 69%
    22:00 +27°C° 0 mm 1 mps 755 mmHg 70%
    23:00 +27°C° 0 mm 1 mps 755 mmHg 72%

    24 January, Thursday

    Time Temperature Precipitation Wind Pressure Humidity
    00:00 +26°C° 0 mm 1 mps 755 mmHg 73%
    01:00 +26°C° 0 mm 1 mps 754 mmHg 74%
    02:00 +25°C° 0 mm 1 mps 754 mmHg 76%
    03:00 +25°C° 0 mm 1 mps 754 mmHg 77%
    04:00 +25°C° 0 mm 1 mps 754 mmHg 77%
    05:00 +24°C° 0 mm 1 mps 754 mmHg 78%
    06:00 +25°C° 0 mm 1 mps 754 mmHg 73%
    07:00 +26°C° 0 mm 1 mps 755 mmHg 68%
    08:00 +27°C° 0 mm 1 mps 755 mmHg 63%
    09:00 +29°C° 0 mm 1 mps 755 mmHg 55%
    10:00 +31°C° 0 mm 2 mps 755 mmHg 47%
    11:00 +35°C° 0 mm 2 mps 755 mmHg 38%
    12:00 +35°C° 0 mm 3 mps 754 mmHg 38%
    13:00 +35°C° 0 mm 4 mps 753 mmHg 38%
    14:00 +36°C° 0 mm 5 mps 752 mmHg 38%
    15:00 +34°C° 0 mm 4 mps 752 mmHg 42%
    16:00 +33°C° 0 mm 4 mps 752 mmHg 45%
    17:00 +32°C° 0 mm 4 mps 752 mmHg 48%
    18:00 +30°C° 0 mm 3 mps 753 mmHg 52%
    19:00 +29°C° 0 mm 3 mps 754 mmHg 57%
    20:00 +28°C° 0 mm 2 mps 754 mmHg 61%
    21:00 +27°C° 0 mm 2 mps 755 mmHg 63%
    22:00 +27°C° 0 mm 1 mps 755 mmHg 66%
    23:00 +27°C° 0 mm 1 mps 755 mmHg 68%

    25 January, Friday

    Time Temperature Precipitation Wind Pressure Humidity
    00:00 +26°C° 0 mm 1 mps 755 mmHg 70%
    01:00 +26°C° 0 mm 1 mps 755 mmHg 73%
    02:00 +25°C° 0 mm 1 mps 754 mmHg 75%
    03:00 +25°C° 0 mm 1 mps 754 mmHg 76%
    04:00 +25°C° 0 mm 1 mps 754 mmHg 77%
    05:00 +24°C° 0 mm 1 mps 755 mmHg 79%
    06:00 +25°C° 0 mm 1 mps 755 mmHg 74%
    07:00 +26°C° 0 mm 1 mps 755 mmHg 69%
    08:00 +27°C° 0 mm 1 mps 756 mmHg 64%
    09:00 +30°C° 0 mm 1 mps 756 mmHg 54%
    10:00 +32°C° 0 mm 1 mps 756 mmHg 45%
    11:00 +34°C° 0 mm 1 mps 755 mmHg 35%
    12:00 +36°C° 0 mm 2 mps 755 mmHg 35%
    13:00 +36°C° 0 mm 3 mps 754 mmHg 35%
    14:00 +36°C° 0 mm 4 mps 753 mmHg 35%
    15:00 +35°C° 0 mm 4 mps 753 mmHg 40%
    16:00 +33°C° 0 mm 4 mps 753 mmHg 45%
    17:00 +32°C° 0 mm 4 mps 753 mmHg 50%
    18:00 +30°C° 0 mm 4 mps 754 mmHg 55%
    19:00 +29°C° 0 mm 3 mps 754 mmHg 60%
    20:00 +28°C° 0 mm 3 mps 755 mmHg 64%
    21:00 +28°C° 0 mm 3 mps 755 mmHg 67%
    22:00 +27°C° 0 mm 2 mps 756 mmHg 69%
    23:00 +27°C° 0 mm 2 mps 756 mmHg 72%
    Show more